{"data":{"norad_id":64060,"epoch":"2026-05-25T02:47:44.469024Z","epoch_age_seconds":58763,"freshness":"FRESH","line1":"1 64060U 25105C   26145.11648691 -.00000055  00000+0  50651-4 0  9994","line2":"2 64060  44.9830 124.8572 0012158 282.5892  77.3580 13.99127171 51960","mean_motion":13.99127171,"eccentricity":0.0012158,"inclination_deg":44.983,"raan_deg":124.8572,"arg_perigee_deg":282.5892,"mean_anomaly_deg":77.358,"bstar":5.0651e-5,"rev_number":5196,"period_min":102.92130907377,"perigee_km":887.97427407143,"apogee_km":905.66405748413,"semimajor_km":7274.9561657778,"source":"CELESTRAK","updated_at":"2026-05-25T13:38:04.198679Z"}}